FW6610 Weather Reports


Display with metric or nautical units.
time (UTC)temp
F
wind
direction
speed
MPH
gust
MPH
rain 1hr
in
rain 24hr
in
rain mn
in
humidity
%
barometer
mb
20260902031559 61 0 0.0 1.0 0.00 2.20 2.20 99 1019.7
20260902031030 61 0 0.0 0.0 0.00 2.20 2.20 99 1019.8
20260902030532 61 0 0.0 0.0 0.00 2.20 2.20 99 1019.6
20260902030042 61 0 0.0 0.0 0.00 2.20 2.20 99 1019.7
20260902025531 61 0 0.0 0.0 0.00 2.20 2.20 99 1019.4
20260902025029 61 0 0.0 0.0 0.00 2.20 2.20 99 1019.6
20260902024558 61 0 0.0 0.0 0.00 2.20 2.20 99 1019.6
20260902024029 61 0 0.0 0.0 0.00 2.20 2.20 99 1019.7
20260902023530 61 0 0.0 0.0 0.00 2.20 2.20 99 1019.9
20260902023050 61 0 0.0 1.0 0.00 2.20 2.20 99 1019.8
20260902022530 61 0 0.0 1.0 0.00 2.20 2.20 99 1019.7
20260902022030 61 250 0.0 1.0 0.00 2.20 2.20 99 1019.9
20260902021550 61 250 0.0 0.0 0.00 2.20 2.20 99 1019.9
20260902021030 61 0 0.0 0.0 0.00 2.20 2.20 99 1019.7
20260902020530 61 0 0.0 0.0 0.00 2.20 2.20 99 1019.7
20260902020043 62 0 0.0 0.0 0.00 2.20 2.20 99 1019.9
20260902015528 62 0 0.0 0.0 0.00 2.20 2.20 99 1019.9
20260902015030 62 0 0.0 0.0 0.00 2.20 2.20 99 1019.9
20260902014552 62 0 0.0 0.0 0.00 2.20 2.20 99 1019.9
20260902014027 61 0 0.0 0.0 0.00 2.20 2.20 99 1019.9
20260902013530 62 0 0.0 0.0 0.00 2.20 2.20 99 1019.8
20260902013049 61 0 0.0 0.0 0.00 2.20 2.20 99 1019.8
20260902012529 61 0 0.0 0.0 0.00 2.20 2.20 99 1019.7
20260902012029 61 0 0.0 0.0 0.00 2.20 2.20 99 1019.8
20260902011546 61 0 0.0 0.0 0.00 2.20 2.20 99 1019.9
20260902011030 61 0 0.0 0.0 0.00 2.20 2.20 99 1019.7
20260902010529 61 0 0.0 0.0 0.00 2.20 2.20 99 1019.6
20260902010052 61 0 0.0 0.0 0.00 2.20 2.20 99 1019.6
20260902005529 61 0 0.0 0.0 0.00 2.20 2.20 99 1019.4
20260902005029 61 0 0.0 0.0 0.00 2.20 2.20 99 1019.4
20260902004553 61 0 0.0 0.0 0.00 2.20 2.20 99 1019.3
20260902004029 61 0 0.0 0.0 0.00 2.20 2.20 99 1019.1
20260902003530 61 0 0.0 0.0 0.00 2.20 2.20 99 1019.3
20260902003048 61 0 0.0 0.0 0.00 2.20 2.20 99 1019.1
20260902002533 61 0 0.0 0.0 0.00 2.20 2.20 99 1019.2
20260902002029 62 0 0.0 0.0 0.00 2.20 2.20 99 1019.1
20260902001550 61 0 0.0 0.0 0.00 2.20 2.20 99 1019.0
20260902001032 61 0 0.0 0.0 0.00 2.20 2.20 99 1019.0
20260902000531 61 0 0.0 0.0 0.00 2.20 2.20 99 1018.9
20260902000049 62 0 0.0 0.0 0.00 2.20 2.20 99 1018.9
20260901235531 61 0 0.0 0.0 0.00 2.20 2.20 99 1018.7
20260901235029 61 0 0.0 0.0 0.00 2.20 2.20 99 1018.9
20260901234551 61 0 0.0 0.0 0.00 2.20 2.20 99 1018.9
20260901234030 61 0 0.0 0.0 0.00 2.20 2.20 99 1018.9
20260901233527 61 0 0.0 0.0 0.00 2.20 2.20 99 1018.8
20260901233049 61 0 0.0 0.0 0.00 2.20 2.20 99 1018.9
20260901232530 61 0 0.0 0.0 0.00 2.20 2.20 99 1018.9
20260901232031 61 0 0.0 0.0 0.00 2.20 2.20 99 1018.9
20260901231544 61 0 0.0 0.0 0.00 2.20 2.20 99 1018.9
20260901231029 61 0 0.0 0.0 0.00 2.20 2.20 99 1019.0
20260901230529 62 0 0.0 0.0 0.00 2.20 2.20 99 1018.9
20260901230053 62 0 0.0 0.0 0.00 2.20 2.20 99 1019.0
20260901225529 62 0 0.0 0.0 0.00 2.20 2.20 99 1019.1
20260901225028 62 0 0.0 0.0 0.00 2.20 2.20 99 1019.1
20260901224546 62 0 0.0 0.0 0.00 2.20 2.20 99 1018.9
20260901224033 62 0 0.0 0.0 0.00 2.20 2.20 99 1018.9
20260901223530 62 0 0.0 0.0 0.00 2.20 2.20 99 1018.8
20260901223049 62 0 0.0 0.0 0.00 2.20 2.20 99 1018.8
20260901222529 62 0 0.0 0.0 0.00 2.20 2.20 99 1018.7
20260901222029 62 0 0.0 0.0 0.00 2.20 2.20 99 1018.7
20260901221545 62 0 0.0 0.0 0.00 2.20 2.20 99 1018.5
20260901221030 62 0 0.0 0.0 0.00 2.20 2.20 98 1018.5
20260901220528 62 0 0.0 0.0 0.00 2.20 2.20 98 1018.6
20260901220051 62 0 0.0 0.0 0.00 2.20 2.20 98 1018.6
20260901215529 62 0 0.0 0.0 0.00 2.20 2.20 98 1018.7
20260901215030 62 0 0.0 0.0 0.00 2.20 2.20 98 1018.5
20260901214546 63 170 0.0 0.0 0.00 2.20 2.20 98 1018.5
20260901214028 63 0 0.0 0.0 0.00 2.20 2.20 98 1018.6
20260901213530 63 0 0.0 0.0 0.00 2.20 2.20 98 1018.5
20260901213111 63 0 0.0 0.0 0.00 2.20 2.20 98 1018.3
20260901212528 63 0 0.0 1.0 0.00 2.20 2.20 98 1018.3
20260901212028 63 172 0.0 1.0 0.00 2.20 2.20 98 1018.2
20260901211544 63 172 0.0 1.0 0.00 2.20 2.20 98 1018.3
20260901211029 63 141 0.0 3.0 0.00 2.20 2.20 98 1018.3
20260901210529 63 0 0.0 3.0 0.00 2.20 2.20 98 1018.3
20260901210052 63 0 0.0 0.0 0.00 2.20 2.20 98 1018.2
20260901205530 63 0 0.0 1.0 0.00 2.20 2.20 98 1018.1
20260901205028 63 0 0.0 2.0 0.01 2.20 2.20 98 1018.1
20260901204551 64 151 0.0 2.0 0.01 2.20 2.20 98 1018.2
20260901204029 64 0 0.0 1.0 0.01 2.20 2.20 98 1018.1
20260901203531 64 0 0.0 1.0 0.01 2.20 2.20 98 1018.0
20260901203118 64 0 0.0 3.0 0.01 2.20 2.20 98 1018.0
20260901202529 64 0 0.0 8.0 0.01 2.20 2.20 98 1017.9
20260901202030 64 149 1.0 8.0 0.01 2.20 2.20 98 1017.9
20260901201553 65 136 1.0 3.0 0.01 2.20 2.20 98 1017.8
20260901201031 65 143 0.0 4.0 0.01 2.20 2.20 99 1017.6
20260901200529 65 0 0.0 4.0 0.01 2.20 2.20 98 1017.6
20260901200053 65 259 0.0 4.0 0.01 2.20 2.20 98 1017.6
20260901195529 65 218 1.0 2.0 0.01 2.20 2.20 98 1017.5
20260901195029 66 136 0.0 2.0 0.00 2.19 2.19 99 1017.4
20260901194546 66 0 0.0 1.0 0.00 2.19 2.19 99 1017.4
20260901194029 66 0 0.0 1.0 0.00 2.19 2.19 99 1017.4
20260901193529 66 0 0.0 2.0 0.00 2.19 2.19 99 1017.3
20260901193047 66 235 0.0 2.0 0.00 2.19 2.19 99 1017.2
20260901192529 66 94 0.0 2.0 0.01 2.19 2.19 99 1017.2
20260901192030 66 0 0.0 5.0 0.01 2.19 2.19 99 1017.2
20260901191551 66 257 1.0 5.0 0.01 2.19 2.19 99 1017.3
20260901191028 66 261 1.0 5.0 0.01 2.19 2.19 99 1017.2
20260901190528 66 0 1.0 3.0 0.02 2.19 2.19 99 1017.1
20260901185527 66 315 0.0 3.0 0.02 2.19 2.19 99 1017.2
20260901185028 66 0 0.0 4.0 0.02 2.19 2.19 99 1017.2
20260901184551 66 0 0.0 4.0 0.02 2.19 2.19 99 1017.3
20260901184030 66 307 0.0 3.0 0.02 2.19 2.19 99 1017.3
20260901183530 66 279 0.0 3.0 0.02 2.19 2.19 99 1017.3
20260901183044 66 229 0.0 5.0 0.02 2.19 2.19 99 1017.2
20260901182529 66 311 2.0 5.0 0.01 2.18 2.18 99 1017.2
20260901182029 66 0 0.0 1.0 0.01 2.18 2.18 99 1017.2
20260901181546 66 289 0.0 1.0 0.01 2.18 2.18 99 1017.2
20260901181029 66 152 0.0 2.0 0.01 2.18 2.18 99 1017.2
20260901180530 66 288 0.0 2.0 0.00 2.17 2.17 99 1017.1
20260901180057 66 325 0.0 1.0 0.00 2.17 2.17 99 1017.0
20260901175529 66 0 0.0 1.0 0.01 2.17 2.17 99 1017.0
20260901175031 66 309 0.0 1.0 0.01 2.17 2.17 99 1017.0
20260901174551 66 0 0.0 0.0 0.01 2.17 2.17 99 1017.0
20260901174027 66 0 0.0 1.0 0.01 2.17 2.17 99 1016.9
20260901173529 66 0 0.0 1.0 0.01 2.17 2.17 99 1016.9
20260901173048 66 294 0.0 2.0 0.02 2.17 2.17 99 1016.9
20260901172531 66 0 0.0 2.0 0.03 2.17 2.17 99 1016.7
20260901172030 66 0 0.0 1.0 0.11 2.17 2.17 99 1016.7
20260901171602 66 0 0.0 1.0 0.20 2.17 2.17 99 1016.7
20260901171027 66 0 0.0 1.0 0.23 2.17 2.17 99 1016.7
20260901170531 66 0 0.0 1.0 0.24 2.17 2.17 99 1016.7
20260901170104 66 0 0.0 1.0 0.25 2.17 2.17 99 1016.7
20260901165529 66 304 0.0 0.0 0.24 2.16 2.16 99 1016.5
20260901165029 66 0 0.0 0.0 0.24 2.16 2.16 99 1016.5
20260901164555 65 0 0.0 1.0 0.24 2.16 2.16 99 1016.9
20260901164030 65 0 0.0 1.0 0.24 2.16 2.16 99 1016.9
20260901163528 65 303 0.0 1.0 0.24 2.16 2.16 99 1016.7
20260901163048 65 196 0.0 1.0 0.23 2.15 2.15 99 1016.3
20260901162530 65 0 0.0 2.0 0.22 2.14 2.14 99 1016.1
20260901162029 65 0 0.0 2.0 0.12 2.04 2.04 99 1016.4
20260901161546 65 0 0.0 2.0 0.05 1.97 1.97 99 1017.2
20260901161030 65 0 0.0 2.0 0.02 1.94 1.94 99 1017.2
20260901160530 66 284 0.0 2.0 0.01 1.93 1.93 99 1016.8
20260901160051 66 146 0.0 3.0 0.00 1.92 1.92 99 1016.6
20260901155528 66 238 0.0 3.0 0.00 1.92 1.92 99 1016.7
20260901155029 66 325 0.0 3.0 0.00 1.92 1.92 99 1016.7
20260901154551 66 258 0.0 2.0 0.00 1.92 1.92 99 1016.7
20260901154030 66 288 0.0 1.0 0.00 1.92 1.92 99 1016.6
20260901153532 66 0 0.0 1.0 0.00 1.92 1.92 99 1016.7
20260901153055 66 0 0.0 2.0 0.01 1.92 1.92 99 1016.8
20260901152528 66 0 0.0 4.0 0.01 1.92 1.92 99 1016.7
20260901152031 66 281 1.0 4.0 0.01 1.92 1.92 99 1016.8
20260901151544 66 160 1.0 2.0 0.02 1.92 1.92 99 1016.8
20260901151029 66 0 0.0 3.0 0.02 1.92 1.92 99 1017.0
20260901150528 66 0 0.0 3.0 0.03 1.92 1.92 99 1017.0
20260901150053 66 0 0.0 0.0 0.03 1.92 1.92 99 1017.0
20260901145530 66 0 0.0 0.0 0.03 1.92 1.92 99 1017.1
20260901145028 66 0 0.0 1.0 0.03 1.92 1.92 99 1017.2
20260901144552 66 0 0.0 2.0 0.03 1.92 1.92 99 1017.1
20260901144029 66 0 0.0 2.0 0.03 1.92 1.92 99 1017.2
20260901143530 66 297 0.0 1.0 0.03 1.92 1.92 99 1017.3
20260901143046 66 0 0.0 2.0 0.02 1.91 1.91 99 1017.4
20260901142533 66 325 0.0 2.0 0.02 1.91 1.91 99 1017.4
20260901142028 66 0 0.0 1.0 0.02 1.91 1.91 99 1017.3
20260901141553 66 0 0.0 1.0 0.02 1.90 1.90 99 1017.3
20260901141031 66 0 0.0 1.0 0.03 1.90 1.90 99 1017.2
20260901140528 66 0 0.0 2.0 0.03 1.89 1.89 99 1017.4
20260901140053 66 0 0.0 2.0 0.05 1.89 1.89 99 1017.5
20260901135529 66 0 0.0 1.0 0.08 1.89 1.89 99 1017.5
20260901135029 66 233 0.0 1.0 0.09 1.89 1.89 99 1017.4
20260901134614 66 0 0.0 1.0 0.12 1.89 1.89 99 1017.5
20260901134027 66 225 0.0 1.0 0.17 1.89 1.89 99 1017.5
20260901133529 66 0 0.0 0.0 0.26 1.89 1.89 99 1017.4
20260901133048 66 0 0.0 4.0 0.35 1.89 1.89 99 1017.3
20260901132530 65 0 0.0 4.0 0.51 1.89 1.89 99 1017.3
20260901132030 65 286 1.0 4.0 0.67 1.89 1.89 99 1017.2
20260901131554 65 313 0.0 1.0 0.73 1.88 1.88 99 1017.3
20260901131027 65 326 0.0 1.0 0.81 1.87 1.87 99 1017.3
20260901130529 65 330 0.0 1.0 0.93 1.86 1.86 99 1017.3
20260901130050 65 0 0.0 1.0 1.16 1.84 1.84 99 1017.4
20260901125530 65 0 0.0 1.0 1.35 1.81 1.81 99 1017.6
20260901125030 65 245 0.0 1.0 1.38 1.79 1.79 99 1017.7
20260901124553 65 0 0.0 1.0 1.36 1.77 1.77 99 1017.5
20260901124028 65 0 0.0 2.0 1.31 1.71 1.71 99 1017.6
20260901123533 65 0 0.0 2.0 1.24 1.62 1.62 99 1017.7
20260901123045 65 0 1.0 2.0 1.17 1.53 1.53 98 1017.8
20260901122527 65 0 0.0 2.0 1.03 1.35 1.35 98 1017.5
20260901122027 65 262 0.0 2.0 0.94 1.22 1.22 98 1017.8
20260901121559 65 283 0.0 2.0 0.89 1.14 1.14 98 1017.6
20260901121028 65 0 0.0 2.0 0.83 1.04 1.04 98 1017.6
20260901120527 65 0 0.0 5.0 0.70 0.90 0.90 98 1017.7
20260901120050 65 312 1.0 5.0 0.46 0.64 0.64 98 1018.0
20260901115530 65 316 1.0 2.0 0.29 0.45 0.45 98 1018.3
20260901115032 65 307 0.0 1.0 0.28 0.41 0.41 98 1017.6
20260901114559 65 0 0.0 1.0 0.30 0.41 0.41 98 1017.0
20260901114027 65 0 0.0 1.0 0.30 0.40 0.40 98 1016.8
20260901113527 65 304 0.0 0.0 0.29 0.38 0.38 98 1016.9
20260901113047 65 0 0.0 0.0 0.26 0.35 0.35 98 1016.8
20260901112528 65 0 0.0 0.0 0.22 0.31 0.31 98 1017.2
20260901112029 65 0 0.0 0.0 0.19 0.28 0.28 98 1017.4
20260901111548 65 0 0.0 0.0 0.15 0.24 0.24 98 1017.4
20260901111029 65 0 0.0 0.0 0.13 0.22 0.22 98 1017.4
20260901110526 65 0 0.0 0.0 0.10 0.19 0.19 98 1017.4
20260901110049 65 0 0.0 0.0 0.09 0.18 0.18 98 1017.5
20260901105528 65 0 0.0 0.0 0.07 0.16 0.16 98 1017.5
20260901105033 65 0 0.0 1.0 0.03 0.12 0.12 98 1017.4
20260901104551 65 0 0.0 1.0 0.02 0.11 0.11 98 1017.3
20260901104028 65 0 0.0 1.0 0.02 0.10 0.10 98 1017.6
20260901103526 65 297 0.0 1.0 0.01 0.09 0.09 98 1017.3
20260901103100 65 0 0.0 0.0 0.01 0.09 0.09 98 1017.2
20260901102531 65 0 0.0 0.0 0.02 0.09 0.09 98 1017.1
20260901102029 65 0 0.0 0.0 0.02 0.09 0.09 98 1017.1
20260901101546 65 0 0.0 0.0 0.02 0.09 0.09 98 1016.9
20260901101029 65 0 0.0 0.0 0.03 0.09 0.09 98 1017.0
20260901100529 65 0 0.0 0.0 0.03 0.09 0.09 98 1016.8
20260901100048 65 0 0.0 0.0 0.04 0.09 0.09 98 1016.8
20260901095527 65 0 0.0 0.0 0.04 0.09 0.09 98 1016.7
20260901095029 65 0 0.0 0.0 0.05 0.09 0.09 98 1016.8
20260901094544 65 0 0.0 0.0 0.05 0.09 0.09 98 1016.9
20260901094030 65 0 0.0 0.0 0.04 0.08 0.08 98 1017.0
20260901093527 65 0 0.0 0.0 0.05 0.08 0.08 98 1017.2
20260901093047 65 0 0.0 0.0 0.05 0.08 0.08 98 1017.1
20260901092529 65 0 0.0 0.0 0.04 0.07 0.07 98 1017.2
20260901092032 65 0 0.0 0.0 0.05 0.07 0.07 98 1017.2
20260901091551 65 0 0.0 0.0 0.05 0.07 0.07 98 1017.3
20260901091033 65 0 0.0 0.0 0.05 0.06 0.06 98 1017.2
20260901090529 65 0 0.0 1.0 0.05 0.06 0.06 97 1017.3
20260901090051 65 0 0.0 1.0 0.04 0.05 0.05 97 1017.3
20260901085528 65 0 0.0 1.0 0.04 0.05 0.05 97 1017.4
20260901085027 65 281 0.0 1.0 0.03 0.04 0.04 97 1017.4
20260901084549 65 0 0.0 0.0 0.03 0.04 0.04 97 1017.4
20260901084028 65 0 0.0 0.0 0.02 0.03 0.03 97 1017.4
20260901083530 65 0 0.0 0.0 0.02 0.03 0.03 97 1017.4
20260901083046 65 0 0.0 0.0 0.02 0.03 0.03 97 1017.4
20260901082530 65 0 0.0 0.0 0.02 0.03 0.03 97 1017.5
20260901082028 65 0 0.0 0.0 0.01 0.02 0.02 97 1017.5
20260901081546 65 0 0.0 0.0 0.01 0.02 0.02 97 1017.4
20260901081028 65 0 0.0 0.0 0.00 0.01 0.01 97 1017.5
20260901080531 66 0 0.0 0.0 0.00 0.01 0.01 97 1017.5
20260901080055 66 0 0.0 0.0 0.00 0.01 0.01 97 1017.5
20260901075527 66 0 0.0 0.0 0.00 0.01 0.01 97 1017.4
20260901075032 66 0 0.0 0.0 0.00 0.01 0.01 97 1017.5
20260901074602 66 0 0.0 0.0 0.00 0.01 0.01 97 1017.5
20260901074029 66 0 0.0 0.0 0.00 0.01 0.01 97 1017.6
20260901073527 66 0 0.0 0.0 0.00 0.01 0.01 97 1017.7
20260901073044 66 0 0.0 0.0 0.00 0.01 0.01 97 1017.8
20260901072528 66 0 0.0 0.0 0.00 0.01 0.01 97 1017.8
20260901072026 66 0 0.0 0.0 0.00 0.01 0.01 97 1018.0
20260901071554 66 0 0.0 0.0 0.00 0.01 0.01 97 1017.9
20260901071027 66 0 0.0 0.0 0.00 0.01 0.01 96 1018.1
20260901070528 66 0 0.0 0.0 0.00 0.01 0.01 96 1018.2
20260901070055 66 0 0.0 0.0 0.00 0.01 0.01 96 1018.2
20260901065528 66 0 0.0 0.0 0.00 0.01 0.01 96 1018.3
20260901065027 66 0 0.0 0.0 0.00 0.01 0.01 96 1018.2
20260901064549 66 0 0.0 0.0 0.00 0.01 0.01 96 1018.2
20260901064027 66 0 0.0 0.0 0.00 0.01 0.01 96 1018.3
20260901063527 66 0 0.0 0.0 0.00 0.01 0.01 96 1018.4
20260901063058 66 0 0.0 0.0 0.00 0.01 0.01 96 1018.3
20260901062530 66 0 0.0 0.0 0.00 0.01 0.01 96 1018.3
20260901062029 66 0 0.0 0.0 0.00 0.01 0.01 96 1018.4
20260901061545 66 0 0.0 0.0 0.01 0.01 0.01 95 1018.4
20260901061029 66 0 0.0 0.0 0.01 0.01 0.01 95 1018.3
20260901060528 66 0 0.0 0.0 0.01 0.01 0.01 95 1018.1
20260901060044 66 0 0.0 0.0 0.01 0.01 0.01 95 1018.1
20260901055528 66 0 0.0 0.0 0.01 0.01 0.01 95 1018.0
20260901055030 66 0 0.0 0.0 0.01 0.01 0.01 95 1018.0
20260901054551 66 0 0.0 0.0 0.01 0.01 0.01 94 1018.3
20260901054027 66 0 0.0 0.0 0.01 0.01 0.01 94 1018.3
20260901053529 66 0 0.0 0.0 0.01 0.01 0.01 93 1018.5
20260901053052 66 0 0.0 0.0 0.01 0.01 0.01 93 1018.5
20260901052528 67 0 0.0 0.0 0.01 0.01 0.01 93 1018.6
20260901052030 67 0 0.0 0.0 0.01 0.01 0.01 92 1018.5
20260901051559 67 0 0.0 0.0 0.00 0.00 0.00 92 1018.6
20260901051029 67 0 0.0 0.0 0.00 0.00 0.00 91 1018.5
20260901050529 67 0 0.0 0.0 0.00 0.00 0.00 91 1018.7
20260901050053 67 0 0.0 0.0 0.00 0.00 0.00 90 1018.6
20260901045529 67 0 0.0 0.0 0.00 0.00 0.00 90 1018.6
20260901045027 67 0 0.0 0.0 0.00 0.00 0.00 90 1018.6
20260901044551 67 0 0.0 0.0 0.00 0.00 0.00 90 1018.7
20260901044030 67 0 0.0 0.0 0.00 0.00 0.00 90 1018.6
20260901043531 67 0 0.0 0.0 0.00 0.00 0.00 90 1018.6
20260901043046 67 0 0.0 0.0 0.00 0.00 0.00 90 1018.5
20260901042528 67 0 0.0 1.0 0.00 0.00 0.00 90 1018.4
20260901042028 67 0 0.0 1.0 0.00 0.00 0.00 90 1018.4
20260901041544 67 0 0.0 0.0 0.00 0.00 0.00 89 1018.5
20260901041028 68 0 0.0 0.0 0.00 0.00 0.00 89 1018.5
20260901040528 68 0 0.0 0.0 0.00 0.00 0.00 89 1018.6
20260901040110 68 0 0.0 0.0 0.00 0.00 0.00 89 1018.4
20260901035528 68 0 0.0 0.0 0.00 0.00 0.00 89 1018.5
20260901035028 68 0 0.0 0.0 0.00 0.00 0.00 88 1018.6
20260901034548 68 0 0.0 0.0 0.00 0.00 0.00 88 1018.5
20260901034028 68 0 0.0 0.0 0.00 0.00 0.00 88 1018.5
20260901033529 68 0 0.0 0.0 0.00 0.00 0.00 87 1018.6
20260901033057 68 0 0.0 0.0 0.00 0.00 0.00 87 1018.7
20260901032529 68 0 0.0 0.0 0.00 0.00 0.00 87 1018.8
20260901032029 68 0 0.0 0.0 0.00 0.00 0.00 87 1018.7